Time,TemperatureF,DewpointF,PressureIn,WindDirection,WindDirectionDegrees,WindSpeedMPH,WindSpeedGustMPH,Humidity,HourlyPrecipIn,Conditions,Clouds,dailyrainin,SoftwareType,DateUTC
2013-02-14 00:04:00,47.7,46.0,30.28,SSW,201,0.0,5.0,94,0.00,,,0.00,meteohub,2013-02-14 08:04:00,
2013-02-14 00:09:00,47.7,46.0,30.28,SSW,201,0.0,5.0,94,0.00,,,0.00,meteohub,2013-02-14 08:09:00,
2013-02-14 00:14:00,47.5,45.9,30.28,SSW,201,0.0,3.0,94,0.00,,,0.00,meteohub,2013-02-14 08:14:00,
2013-02-14 00:19:00,47.3,45.7,30.28,SSW,201,1.0,3.0,94,0.00,,,0.00,meteohub,2013-02-14 08:19:00,
2013-02-14 00:24:00,47.3,45.9,30.28,SSW,201,1.0,2.0,95,0.00,,,0.00,meteohub,2013-02-14 08:24:00,
2013-02-14 00:29:00,47.1,45.5,30.28,SSW,201,0.0,3.0,94,0.00,,,0.00,meteohub,2013-02-14 08:29:00,
2013-02-14 00:34:00,47.1,45.7,30.28,SSW,201,0.0,3.0,95,0.00,,,0.00,meteohub,2013-02-14 08:34:00,
2013-02-14 00:39:00,47.1,45.7,30.28,SSW,201,0.0,3.0,95,0.00,,,0.00,meteohub,2013-02-14 08:39:00,
2013-02-14 00:44:00,47.1,45.7,30.28,SSW,201,0.0,3.0,95,0.00,,,0.00,meteohub,2013-02-14 08:44:00,
2013-02-14 00:49:00,47.1,45.7,30.28,SSW,201,2.0,3.0,95,0.00,,,0.00,meteohub,2013-02-14 08:49:00,
2013-02-14 00:54:00,47.3,45.9,30.28,SSW,201,0.0,3.0,95,0.00,,,0.00,meteohub,2013-02-14 08:54:00,
2013-02-14 00:59:00,47.3,45.9,30.28,SSW,201,1.0,3.0,95,0.00,,,0.00,meteohub,2013-02-14 08:59:00,
2013-02-14 01:04:00,47.3,45.9,30.28,SSW,201,0.0,3.0,95,0.00,,,0.00,meteohub,2013-02-14 09:04:00,
2013-02-14 01:09:00,47.1,45.7,30.28,SSW,201,0.0,4.0,95,0.00,,,0.00,meteohub,2013-02-14 09:09:00,
2013-02-14 01:15:00,47.1,45.7,30.28,SSW,201,0.0,4.0,95,0.00,,,0.00,meteohub,2013-02-14 09:15:00,
2013-02-14 01:20:00,47.1,45.7,30.28,SSW,201,2.0,4.0,95,0.00,,,0.00,meteohub,2013-02-14 09:20:00,
2013-02-14 01:25:00,47.1,45.7,30.28,SSW,201,1.0,3.0,95,0.00,,,0.00,meteohub,2013-02-14 09:25:00,
2013-02-14 01:30:00,47.1,45.7,30.29,SSW,201,0.0,3.0,95,0.00,,,0.00,meteohub,2013-02-14 09:30:00,
2013-02-14 01:35:00,46.9,45.5,30.29,SSW,201,0.0,3.0,95,0.00,,,0.00,meteohub,2013-02-14 09:35:00,
2013-02-14 01:40:00,46.9,45.5,30.28,SSW,201,2.0,2.0,95,0.00,,,0.00,meteohub,2013-02-14 09:40:00,
2013-02-14 01:45:00,46.9,45.5,30.28,SSW,192,1.0,3.0,95,0.00,,,0.00,meteohub,2013-02-14 09:45:00,
2013-02-14 01:50:00,46.8,45.3,30.28,SSW,192,1.0,3.0,95,0.00,,,0.00,meteohub,2013-02-14 09:50:00,
2013-02-14 01:55:00,46.8,45.3,30.28,SSW,192,0.0,4.0,95,0.00,,,0.00,meteohub,2013-02-14 09:55:00,
2013-02-14 02:00:00,46.6,45.1,30.28,SSW,193,0.0,2.0,95,0.00,,,0.00,meteohub,2013-02-14 10:00:00,
2013-02-14 02:05:00,46.6,45.1,30.29,SSW,193,0.0,1.0,95,0.00,,,0.00,meteohub,2013-02-14 10:05:00,
2013-02-14 02:10:00,46.0,44.6,30.28,SSW,193,0.0,1.0,95,0.00,,,0.00,meteohub,2013-02-14 10:10:00,
2013-02-14 02:15:00,45.5,43.9,30.28,SSW,192,0.0,3.0,94,0.00,,,0.00,meteohub,2013-02-14 10:15:00,
2013-02-14 02:20:00,45.0,43.3,30.28,SSW,192,0.0,3.0,94,0.00,,,0.00,meteohub,2013-02-14 10:20:00,
2013-02-14 02:25:00,44.6,43.0,30.28,SSW,192,0.0,1.0,94,0.00,,,0.00,meteohub,2013-02-14 10:25:00,
2013-02-14 02:30:00,44.2,43.0,30.28,SSW,193,0.0,0.0,95,0.00,,,0.00,meteohub,2013-02-14 10:30:00,
2013-02-14 02:35:00,44.2,43.0,30.28,SSW,192,0.0,0.0,95,0.00,,,0.00,meteohub,2013-02-14 10:35:00,
2013-02-14 02:40:00,44.1,42.8,30.28,SSW,193,0.0,0.0,95,0.00,,,0.00,meteohub,2013-02-14 10:40:00,
2013-02-14 02:45:00,44.2,43.0,30.28,SSW,193,0.0,0.0,95,0.00,,,0.00,meteohub,2013-02-14 10:45:00,
2013-02-14 02:50:00,44.4,43.2,30.28,SSW,192,0.0,0.0,95,0.00,,,0.00,meteohub,2013-02-14 10:50:00,
2013-02-14 02:56:00,44.4,43.2,30.28,SSW,193,0.0,0.0,95,0.00,,,0.00,meteohub,2013-02-14 10:56:00,
2013-02-14 03:01:00,44.4,43.2,30.27,SSW,193,0.0,0.0,95,0.00,,,0.00,meteohub,2013-02-14 11:01:00,
2013-02-14 03:06:00,44.4,43.2,30.27,SSW,193,0.0,0.0,95,0.00,,,0.00,meteohub,2013-02-14 11:06:00,
2013-02-14 03:11:00,44.4,43.2,30.27,SSW,193,0.0,0.0,95,0.01,,,0.01,meteohub,2013-02-14 11:11:00,
2013-02-14 03:16:00,44.4,43.2,30.27,SSW,193,0.0,0.0,95,0.01,,,0.01,meteohub,2013-02-14 11:16:00,
2013-02-14 03:21:00,44.2,43.0,30.27,SSW,192,0.0,0.0,95,0.01,,,0.01,meteohub,2013-02-14 11:21:00,
2013-02-14 03:26:00,44.2,43.0,30.27,SSW,192,1.0,0.0,95,0.01,,,0.01,meteohub,2013-02-14 11:26:00,
2013-02-14 03:31:00,44.1,42.8,30.27,SSW,193,0.0,2.0,95,0.01,,,0.01,meteohub,2013-02-14 11:31:00,
2013-02-14 03:36:00,43.9,42.6,30.27,SSW,193,0.0,2.0,95,0.01,,,0.01,meteohub,2013-02-14 11:36:00,
2013-02-14 03:41:00,43.5,42.3,30.27,SSW,193,0.0,2.0,95,0.01,,,0.01,meteohub,2013-02-14 11:41:00,
2013-02-14 03:46:00,43.2,41.9,30.27,SSW,193,0.0,2.0,95,0.01,,,0.01,meteohub,2013-02-14 11:46:00,
2013-02-14 03:51:00,43.0,41.7,30.27,SSW,193,1.0,2.0,95,0.01,,,0.01,meteohub,2013-02-14 11:51:00,
2013-02-14 03:56:00,42.8,41.5,30.27,SSW,193,0.0,2.0,95,0.01,,,0.01,meteohub,2013-02-14 11:56:00,
2013-02-14 04:01:00,42.6,41.4,30.27,SSW,194,0.0,2.0,95,0.01,,,0.01,meteohub,2013-02-14 12:01:00,
2013-02-14 04:06:00,42.4,41.2,30.27,North,359,0.0,2.0,95,0.00,,,0.01,meteohub,2013-02-14 12:06:00,
2013-02-14 04:11:00,42.4,41.2,30.27,SSW,194,0.0,1.0,95,0.00,,,0.01,meteohub,2013-02-14 12:11:00,
2013-02-14 04:16:00,42.4,41.4,30.27,South,191,0.0,0.0,96,0.00,,,0.01,meteohub,2013-02-14 12:16:00,
2013-02-14 04:21:00,42.4,41.4,30.27,SSW,193,0.0,1.0,96,0.00,,,0.01,meteohub,2013-02-14 12:21:00,
2013-02-14 04:26:00,42.3,41.0,30.27,South,191,0.0,1.0,95,0.00,,,0.01,meteohub,2013-02-14 12:26:00,
2013-02-14 04:32:00,42.1,40.8,30.27,SSW,192,0.0,2.0,95,0.00,,,0.01,meteohub,2013-02-14 12:32:00,
2013-02-14 04:37:00,42.1,40.8,30.27,South,191,1.0,2.0,95,0.00,,,0.01,meteohub,2013-02-14 12:37:00,
2013-02-14 04:42:00,42.1,40.8,30.27,SSW,193,0.0,2.0,95,0.00,,,0.01,meteohub,2013-02-14 12:42:00,
2013-02-14 04:47:00,42.1,40.8,30.27,SSW,192,1.0,2.0,95,0.00,,,0.01,meteohub,2013-02-14 12:47:00,
2013-02-14 04:52:00,42.1,41.0,30.27,SSW,192,0.0,2.0,96,0.00,,,0.01,meteohub,2013-02-14 12:52:00,
2013-02-14 04:57:00,42.3,41.2,30.27,SSW,192,0.0,2.0,96,0.00,,,0.01,meteohub,2013-02-14 12:57:00,
2013-02-14 05:02:00,42.4,41.4,30.27,SSW,194,0.0,2.0,96,0.00,,,0.01,meteohub,2013-02-14 13:02:00,
2013-02-14 05:07:00,42.4,41.4,30.27,SSW,194,0.0,0.0,96,0.00,,,0.01,meteohub,2013-02-14 13:07:00,
2013-02-14 05:12:00,42.4,41.4,30.27,SSW,193,2.0,2.0,96,0.00,,,0.01,meteohub,2013-02-14 13:12:00,
2013-02-14 05:17:00,42.8,41.7,30.27,SSW,192,2.0,2.0,96,0.00,,,0.01,meteohub,2013-02-14 13:17:00,
2013-02-14 05:22:00,43.3,42.3,30.27,SSW,193,0.0,3.0,96,0.00,,,0.01,meteohub,2013-02-14 13:22:00,
2013-02-14 05:27:00,43.9,42.8,30.27,SSW,193,0.0,3.0,96,0.00,,,0.01,meteohub,2013-02-14 13:27:00,
2013-02-14 05:32:00,44.1,43.0,30.27,SSW,194,2.0,3.0,96,0.00,,,0.01,meteohub,2013-02-14 13:32:00,
2013-02-14 05:37:00,44.2,43.2,30.27,SSW,193,1.0,2.0,96,0.00,,,0.01,meteohub,2013-02-14 13:37:00,
2013-02-14 05:42:00,44.6,43.5,30.27,SSW,194,0.0,2.0,96,0.00,,,0.01,meteohub,2013-02-14 13:42:00,
2013-02-14 05:47:00,44.8,43.7,30.27,South,191,0.0,2.0,96,0.00,,,0.01,meteohub,2013-02-14 13:47:00,
2013-02-14 05:53:00,45.0,43.9,30.27,SSW,193,2.0,2.0,96,0.00,,,0.01,meteohub,2013-02-14 13:53:00,
2013-02-14 05:58:00,45.1,44.4,30.27,SSW,193,0.0,3.0,97,0.00,,,0.01,meteohub,2013-02-14 13:58:00,
2013-02-14 06:03:00,45.3,44.6,30.27,SSW,193,0.0,3.0,97,0.00,,,0.01,meteohub,2013-02-14 14:03:00,
2013-02-14 06:08:00,45.3,44.2,30.27,SSW,193,0.0,3.0,96,0.00,,,0.01,meteohub,2013-02-14 14:08:00,
2013-02-14 06:13:00,45.7,44.6,30.27,SSW,193,0.0,3.0,96,0.00,,,0.01,meteohub,2013-02-14 14:13:00,
2013-02-14 06:18:00,45.7,44.6,30.28,South,191,0.0,3.0,96,0.00,,,0.01,meteohub,2013-02-14 14:18:00,
2013-02-14 06:23:00,45.7,44.6,30.27,North,359,0.0,3.0,96,0.00,,,0.01,meteohub,2013-02-14 14:23:00,
2013-02-14 06:28:00,45.7,44.6,30.28,SSW,192,0.0,1.0,96,0.00,,,0.01,meteohub,2013-02-14 14:28:00,
2013-02-14 06:33:00,45.7,44.6,30.28,SSW,193,0.0,0.0,96,0.00,,,0.01,meteohub,2013-02-14 14:33:00,
2013-02-14 06:38:00,45.9,45.1,30.28,SSW,192,0.0,0.0,97,0.00,,,0.01,meteohub,2013-02-14 14:38:00,
2013-02-14 06:43:00,45.9,45.1,30.28,SSW,193,0.0,0.0,97,0.00,,,0.01,meteohub,2013-02-14 14:43:00,
2013-02-14 06:48:00,45.9,45.1,30.28,SSW,193,0.0,0.0,97,0.00,,,0.01,meteohub,2013-02-14 14:48:00,
2013-02-14 06:53:00,45.9,44.8,30.28,SSW,195,0.0,2.0,96,0.00,,,0.01,meteohub,2013-02-14 14:53:00,
2013-02-14 06:58:00,45.7,45.0,30.28,SSW,193,0.0,2.0,97,0.00,,,0.01,meteohub,2013-02-14 14:58:00,
2013-02-14 07:03:00,45.7,44.6,30.29,South,190,0.0,2.0,96,0.00,,,0.01,meteohub,2013-02-14 15:03:00,
2013-02-14 07:08:00,45.7,44.6,30.29,North,359,0.0,2.0,96,0.00,,,0.01,meteohub,2013-02-14 15:08:00,
2013-02-14 07:13:00,45.7,44.6,30.29,South,191,0.0,2.0,96,0.00,,,0.01,meteohub,2013-02-14 15:13:00,
2013-02-14 07:18:00,45.7,44.6,30.28,SSW,193,0.0,0.0,96,0.00,,,0.01,meteohub,2013-02-14 15:18:00,
2013-02-14 07:23:00,45.5,44.4,30.29,SSW,195,0.0,1.0,96,0.00,,,0.01,meteohub,2013-02-14 15:23:00,
2013-02-14 07:28:00,45.5,44.8,30.29,SSW,193,1.0,3.0,97,0.00,,,0.01,meteohub,2013-02-14 15:28:00,
2013-02-14 07:33:00,45.5,44.8,30.30,SSW,194,0.0,3.0,97,0.00,,,0.01,meteohub,2013-02-14 15:33:00,
2013-02-14 07:38:00,45.3,44.6,30.30,South,191,0.0,3.0,97,0.00,,,0.01,meteohub,2013-02-14 15:38:00,
2013-02-14 07:43:00,45.3,44.6,30.30,North,359,0.0,2.0,97,0.00,,,0.01,meteohub,2013-02-14 15:43:00,
2013-02-14 07:48:00,45.1,44.4,30.30,SSW,195,0.0,2.0,97,0.00,,,0.01,meteohub,2013-02-14 15:48:00,
2013-02-14 07:53:00,45.1,44.4,30.30,SSW,193,0.0,2.0,97,0.00,,,0.01,meteohub,2013-02-14 15:53:00,
2013-02-14 07:58:00,45.1,44.4,30.30,SSW,193,0.0,1.0,97,0.00,,,0.01,meteohub,2013-02-14 15:58:00,
2013-02-14 08:03:00,45.1,44.4,30.30,South,191,0.0,2.0,97,0.00,,,0.01,meteohub,2013-02-14 16:03:00,
2013-02-14 08:08:00,45.0,44.2,30.30,South,191,0.0,2.0,97,0.00,,,0.01,meteohub,2013-02-14 16:08:00,
2013-02-14 08:13:00,45.1,44.4,30.30,SSW,193,0.0,2.0,97,0.00,,,0.01,meteohub,2013-02-14 16:13:00,
2013-02-14 08:18:00,45.1,44.4,30.30,SSW,193,0.0,2.0,97,0.00,,,0.01,meteohub,2013-02-14 16:18:00,
2013-02-14 08:24:00,45.3,44.6,30.30,SSW,192,0.0,1.0,97,0.00,,,0.01,meteohub,2013-02-14 16:24:00,
2013-02-14 08:29:00,45.3,44.6,30.30,North,359,0.0,2.0,97,0.00,,,0.01,meteohub,2013-02-14 16:29:00,
2013-02-14 08:34:00,45.3,44.6,30.30,South,190,0.0,2.0,97,0.00,,,0.01,meteohub,2013-02-14 16:34:00,
2013-02-14 08:39:00,45.5,44.8,30.30,South,191,0.0,3.0,97,0.00,,,0.01,meteohub,2013-02-14 16:39:00,
2013-02-14 08:44:00,45.7,45.0,30.30,SSW,193,4.0,4.0,97,0.00,,,0.01,meteohub,2013-02-14 16:44:00,
2013-02-14 08:49:00,45.7,45.0,30.30,South,191,1.0,3.0,97,0.00,,,0.01,meteohub,2013-02-14 16:49:00,
2013-02-14 08:54:00,46.0,45.3,30.31,North,359,3.0,4.0,97,0.00,,,0.01,meteohub,2013-02-14 16:54:00,
2013-02-14 08:59:00,46.0,45.3,30.30,WNW,302,7.0,7.0,97,0.00,,,0.01,meteohub,2013-02-14 16:59:00,
2013-02-14 09:04:00,46.0,45.3,30.30,NW,316,4.0,6.0,97,0.00,,,0.01,meteohub,2013-02-14 17:04:00,
2013-02-14 09:09:00,46.4,45.7,30.30,WNW,289,5.0,7.0,97,0.00,,,0.01,meteohub,2013-02-14 17:09:00,
2013-02-14 09:15:00,46.4,45.7,30.30,WNW,288,3.0,7.0,97,0.00,,,0.01,meteohub,2013-02-14 17:15:00,
2013-02-14 09:20:00,46.4,45.7,30.30,WNW,291,2.0,7.0,97,0.00,,,0.01,meteohub,2013-02-14 17:20:00,
2013-02-14 09:25:00,46.6,45.9,30.30,NW,310,2.0,6.0,97,0.00,,,0.01,meteohub,2013-02-14 17:25:00,
2013-02-14 09:30:00,46.6,45.9,30.30,NW,322,6.0,6.0,97,0.00,,,0.01,meteohub,2013-02-14 17:30:00,
2013-02-14 09:35:00,46.4,45.3,30.30,NNW,343,2.0,6.0,96,0.00,,,0.01,meteohub,2013-02-14 17:35:00,
2013-02-14 09:40:00,46.2,45.1,30.30,NW,316,3.0,6.0,96,0.00,,,0.01,meteohub,2013-02-14 17:40:00,
2013-02-14 09:46:00,46.4,45.7,30.30,NW,314,0.0,6.0,97,0.00,,,0.01,meteohub,2013-02-14 17:46:00,
2013-02-14 09:51:00,46.9,46.2,30.30,NW,316,0.0,5.0,97,0.00,,,0.01,meteohub,2013-02-14 17:51:00,
2013-02-14 09:56:00,47.1,46.4,30.30,NW,317,2.0,4.0,97,0.00,,,0.01,meteohub,2013-02-14 17:56:00,
2013-02-14 10:02:00,47.5,46.8,30.30,NW,316,1.0,4.0,97,0.00,,,0.01,meteohub,2013-02-14 18:02:00,
2013-02-14 10:07:00,48.0,47.1,30.30,NW,315,1.0,4.0,97,0.00,,,0.01,meteohub,2013-02-14 18:07:00,
2013-02-14 10:12:00,48.6,47.7,30.29,NW,315,0.0,3.0,97,0.00,,,0.01,meteohub,2013-02-14 18:12:00,
2013-02-14 10:17:00,48.9,47.8,30.29,NW,314,0.0,3.0,96,0.00,,,0.01,meteohub,2013-02-14 18:17:00,
2013-02-14 10:23:00,49.3,48.2,30.29,NW,317,0.0,4.0,96,0.00,,,0.01,meteohub,2013-02-14 18:23:00,
2013-02-14 10:28:00,49.8,48.4,30.29,NW,314,0.0,4.0,95,0.00,,,0.01,meteohub,2013-02-14 18:28:00,
2013-02-14 10:33:00,50.5,48.9,30.29,NW,324,4.0,4.0,94,0.00,,,0.01,meteohub,2013-02-14 18:33:00,
2013-02-14 10:38:00,50.9,48.9,30.29,NW,324,1.0,6.0,93,0.00,,,0.01,meteohub,2013-02-14 18:38:00,
2013-02-14 10:44:00,51.8,49.3,30.29,NW,324,4.0,6.0,91,0.00,,,0.01,meteohub,2013-02-14 18:44:00,
2013-02-14 10:49:00,52.3,49.3,30.29,WNW,303,1.0,6.0,89,0.00,,,0.01,meteohub,2013-02-14 18:49:00,
2013-02-14 10:50:00,52.5,49.5,30.29,WNW,301,3.0,6.0,89,0.00,,,0.01,meteohub,2013-02-14 18:50:00,
2013-02-14 11:02:00,53.4,48.4,30.29,WNW,283,3.0,8.0,83,0.00,,,0.01,meteohub,2013-02-14 19:02:00,
2013-02-14 11:07:00,54.0,48.6,30.29,WNW,293,2.0,8.0,82,0.00,,,0.01,meteohub,2013-02-14 19:07:00,
2013-02-14 11:12:00,54.3,48.6,30.29,NW,305,6.0,8.0,81,0.00,,,0.01,meteohub,2013-02-14 19:12:00,
2013-02-14 11:17:00,54.9,48.6,30.28,WNW,289,4.0,6.0,79,0.00,,,0.01,meteohub,2013-02-14 19:17:00,
2013-02-14 11:22:00,55.2,48.6,30.28,NW,310,1.0,6.0,78,0.00,,,0.01,meteohub,2013-02-14 19:22:00,
2013-02-14 11:27:00,55.6,48.2,30.28,NW,306,5.0,6.0,76,0.00,,,0.01,meteohub,2013-02-14 19:27:00,
2013-02-14 11:33:00,55.9,48.6,30.28,NW,308,3.0,5.0,76,0.00,,,0.01,meteohub,2013-02-14 19:33:00,
2013-02-14 11:38:00,56.7,48.4,30.28,WNW,289,3.0,5.0,74,0.00,,,0.01,meteohub,2013-02-14 19:38:00,
2013-02-14 11:43:00,57.6,48.9,30.27,WNW,295,4.0,5.0,73,0.00,,,0.01,meteohub,2013-02-14 19:43:00,
2013-02-14 11:49:00,57.9,48.6,30.27,NW,314,4.0,5.0,71,0.00,,,0.01,meteohub,2013-02-14 19:49:00,
2013-02-14 11:54:00,58.3,48.6,30.27,WNW,282,4.0,5.0,70,0.00,,,0.01,meteohub,2013-02-14 19:54:00,
2013-02-14 11:59:00,58.8,48.7,30.26,WNW,289,4.0,6.0,69,0.00,,,0.01,meteohub,2013-02-14 19:59:00,
2013-02-14 12:04:00,59.5,48.6,30.26,West,268,5.0,7.0,67,0.00,,,0.01,meteohub,2013-02-14 20:04:00,
2013-02-14 12:09:00,60.3,48.4,30.26,West,262,7.0,7.0,65,0.00,,,0.01,meteohub,2013-02-14 20:09:00,
2013-02-14 12:14:00,61.0,48.7,30.26,WNW,291,4.0,7.0,64,0.00,,,0.01,meteohub,2013-02-14 20:14:00,
2013-02-14 12:19:00,61.7,48.9,30.26,West,274,4.0,8.0,63,0.00,,,0.01,meteohub,2013-02-14 20:19:00,
2013-02-14 12:24:00,61.3,48.2,30.26,WSW,250,6.0,8.0,62,0.00,,,0.01,meteohub,2013-02-14 20:24:00,
2013-02-14 12:30:00,61.2,47.7,30.26,SW,231,5.0,9.0,61,0.00,,,0.01,meteohub,2013-02-14 20:30:00,
2013-02-14 12:35:00,61.9,48.2,30.26,WSW,239,9.0,10.0,61,0.00,,,0.01,meteohub,2013-02-14 20:35:00,
2013-02-14 12:40:00,61.7,47.3,30.26,West,272,5.0,10.0,59,0.00,,,0.01,meteohub,2013-02-14 20:40:00,
2013-02-14 12:45:00,62.1,47.1,30.25,WSW,249,2.0,10.0,58,0.00,,,0.01,meteohub,2013-02-14 20:45:00,
2013-02-14 12:50:00,62.2,46.8,30.25,WSW,237,4.0,10.0,57,0.00,,,0.01,meteohub,2013-02-14 20:50:00,
2013-02-14 12:55:00,62.4,47.5,30.25,SW,235,5.0,8.0,58,0.00,,,0.01,meteohub,2013-02-14 20:55:00,
2013-02-14 13:00:00,63.0,47.5,30.25,South,188,2.0,8.0,57,0.00,,,0.01,meteohub,2013-02-14 21:00:00,
2013-02-14 13:05:00,63.1,47.1,30.25,South,181,3.0,8.0,56,0.00,,,0.01,meteohub,2013-02-14 21:05:00,
2013-02-14 13:10:00,63.3,47.3,30.25,SSW,211,5.0,8.0,56,0.00,,,0.01,meteohub,2013-02-14 21:10:00,
2013-02-14 13:15:00,63.5,47.1,30.24,SSW,208,3.0,7.0,55,0.00,,,0.01,meteohub,2013-02-14 21:15:00,
2013-02-14 13:20:00,64.0,47.1,30.24,SW,225,0.0,7.0,54,0.00,,,0.01,meteohub,2013-02-14 21:20:00,
2013-02-14 13:25:00,64.9,47.8,30.23,SSW,203,3.0,7.0,54,0.00,,,0.01,meteohub,2013-02-14 21:25:00,
2013-02-14 13:30:00,65.7,47.1,30.23,WSW,237,1.0,5.0,51,0.00,,,0.01,meteohub,2013-02-14 21:30:00,
2013-02-14 13:35:00,66.0,47.3,30.22,WSW,246,3.0,5.0,51,0.00,,,0.01,meteohub,2013-02-14 21:35:00,
2013-02-14 13:40:00,66.0,46.8,30.22,West,267,2.0,5.0,50,0.00,,,0.01,meteohub,2013-02-14 21:40:00,
2013-02-14 13:45:00,66.0,46.8,30.22,West,268,3.0,5.0,50,0.00,,,0.01,meteohub,2013-02-14 21:45:00,
2013-02-14 13:50:00,66.0,47.3,30.22,SSW,199,6.0,8.0,51,0.00,,,0.01,meteohub,2013-02-14 21:50:00,
2013-02-14 13:56:00,65.8,47.7,30.22,SSW,201,4.0,8.0,52,0.00,,,0.01,meteohub,2013-02-14 21:56:00,
2013-02-14 14:01:00,65.8,46.8,30.22,SSW,206,2.0,8.0,50,0.00,,,0.01,meteohub,2013-02-14 22:01:00,
2013-02-14 14:06:00,66.6,46.8,30.22,SSW,208,0.0,7.0,49,0.00,,,0.01,meteohub,2013-02-14 22:06:00,
2013-02-14 14:11:00,67.3,46.9,30.22,South,174,4.0,10.0,48,0.00,,,0.01,meteohub,2013-02-14 22:11:00,
2013-02-14 14:16:00,66.7,46.4,30.22,SSW,194,6.0,10.0,48,0.00,,,0.01,meteohub,2013-02-14 22:16:00,
2013-02-14 14:21:00,65.8,45.7,30.22,SSE,168,1.0,10.0,48,0.00,,,0.01,meteohub,2013-02-14 22:21:00,
2013-02-14 14:26:00,65.8,46.2,30.22,SSE,168,0.0,7.0,49,0.00,,,0.01,meteohub,2013-02-14 22:26:00,
2013-02-14 14:31:00,65.8,46.8,30.22,SSW,210,5.0,7.0,50,0.00,,,0.01,meteohub,2013-02-14 22:31:00,
2013-02-14 14:36:00,64.8,46.8,30.22,SSW,194,7.0,8.0,52,0.00,,,0.01,meteohub,2013-02-14 22:36:00,
2013-02-14 14:41:00,64.0,46.6,30.22,WSW,249,9.0,9.0,53,0.00,,,0.01,meteohub,2013-02-14 22:41:00,
2013-02-14 14:46:00,64.8,47.3,30.22,SSW,205,3.0,11.0,53,0.00,,,0.01,meteohub,2013-02-14 22:46:00,
2013-02-14 14:51:00,65.7,47.1,30.22,WSW,246,4.0,11.0,51,0.00,,,0.01,meteohub,2013-02-14 22:51:00,
2013-02-14 14:56:00,66.6,46.8,30.22,WSW,255,1.0,11.0,49,0.00,,,0.01,meteohub,2013-02-14 22:56:00,
2013-02-14 15:01:00,67.6,47.3,30.22,West,264,3.0,7.0,48,0.00,,,0.01,meteohub,2013-02-14 23:01:00,
2013-02-14 15:06:00,67.6,46.8,30.22,SW,224,5.0,7.0,47,0.00,,,0.01,meteohub,2013-02-14 23:06:00,
2013-02-14 15:11:00,67.6,47.3,30.22,SW,218,4.0,6.0,48,0.00,,,0.01,meteohub,2013-02-14 23:11:00,
2013-02-14 15:16:00,67.6,46.0,30.22,SW,221,2.0,7.0,46,0.00,,,0.01,meteohub,2013-02-14 23:16:00,
2013-02-14 15:21:00,67.5,46.0,30.22,WSW,237,3.0,8.0,46,0.00,,,0.01,meteohub,2013-02-14 23:21:00,
2013-02-14 15:26:00,67.6,46.0,30.22,WSW,249,3.0,8.0,46,0.00,,,0.01,meteohub,2013-02-14 23:26:00,
2013-02-14 15:31:00,68.2,46.6,30.22,WSW,247,5.0,8.0,46,0.00,,,0.01,meteohub,2013-02-14 23:31:00,
2013-02-14 15:36:00,68.2,47.1,30.22,SW,232,2.0,8.0,47,0.00,,,0.01,meteohub,2013-02-14 23:36:00,
2013-02-14 15:41:00,68.5,47.5,30.22,SW,234,6.0,8.0,47,0.00,,,0.01,meteohub,2013-02-14 23:41:00,
2013-02-14 15:46:00,69.3,47.7,30.22,SSW,193,4.0,8.0,46,0.00,,,0.01,meteohub,2013-02-14 23:46:00,
2013-02-14 15:51:00,68.5,46.9,30.22,SSE,157,0.0,7.0,46,0.00,,,0.01,meteohub,2013-02-14 23:51:00,
2013-02-14 15:56:00,68.7,46.6,30.21,SSE,163,3.0,7.0,45,0.00,,,0.01,meteohub,2013-02-14 23:56:00,
2013-02-14 16:01:00,68.5,46.4,30.21,WSW,242,2.0,6.0,45,0.00,,,0.01,meteohub,2013-02-15 00:01:00,
2013-02-14 16:06:00,68.5,46.4,30.21,WSW,241,0.0,6.0,45,0.00,,,0.00,meteohub,2013-02-15 00:06:00,
2013-02-14 16:11:00,68.7,46.6,30.21,WSW,242,3.0,6.0,45,0.00,,,0.00,meteohub,2013-02-15 00:11:00,
2013-02-14 16:16:00,69.4,47.1,30.21,WSW,242,3.0,5.0,45,0.00,,,0.00,meteohub,2013-02-15 00:16:00,
2013-02-14 16:21:00,69.1,48.0,30.21,WSW,241,0.0,4.0,47,0.00,,,0.00,meteohub,2013-02-15 00:21:00,
2013-02-14 16:26:00,69.1,47.5,30.21,WSW,241,2.0,3.0,46,0.00,,,0.00,meteohub,2013-02-15 00:26:00,
2013-02-14 16:32:00,68.7,47.7,30.20,West,267,6.0,6.0,47,0.00,,,0.00,meteohub,2013-02-15 00:32:00,
2013-02-14 16:37:00,68.2,47.7,30.20,West,273,2.0,7.0,48,0.00,,,0.00,meteohub,2013-02-15 00:37:00,
2013-02-14 16:42:00,68.0,47.7,30.21,WNW,291,1.0,7.0,48,0.00,,,0.00,meteohub,2013-02-15 00:42:00,
2013-02-14 16:47:00,68.2,47.7,30.21,WNW,291,1.0,7.0,48,0.00,,,0.00,meteohub,2013-02-15 00:47:00,
2013-02-14 16:52:00,68.2,47.7,30.21,WNW,292,0.0,5.0,48,0.00,,,0.00,meteohub,2013-02-15 00:52:00,
2013-02-14 16:57:00,68.2,49.3,30.21,SSE,161,5.0,5.0,51,0.00,,,0.00,meteohub,2013-02-15 00:57:00,
2013-02-14 17:02:00,66.6,49.8,30.21,SSE,160,2.0,6.0,55,0.00,,,0.00,meteohub,2013-02-15 01:02:00,
2013-02-14 17:07:00,64.9,49.8,30.21,SE,141,3.0,6.0,58,0.00,,,0.00,meteohub,2013-02-15 01:07:00,
2013-02-14 17:12:00,63.9,49.6,30.21,SE,133,1.0,6.0,60,0.00,,,0.00,meteohub,2013-02-15 01:12:00,
2013-02-14 17:17:00,63.1,49.5,30.21,SE,133,0.0,4.0,61,0.00,,,0.00,meteohub,2013-02-15 01:17:00,
2013-02-14 17:22:00,63.0,49.3,30.21,SE,134,1.0,4.0,61,0.00,,,0.00,meteohub,2013-02-15 01:22:00,
2013-02-14 17:27:00,62.8,49.6,30.21,SE,133,0.0,2.0,62,0.00,,,0.00,meteohub,2013-02-15 01:27:00,
2013-02-14 17:32:00,62.4,49.3,30.21,SE,134,0.0,2.0,62,0.00,,,0.00,meteohub,2013-02-15 01:32:00,
2013-02-14 17:37:00,62.2,49.5,30.21,SE,133,0.0,2.0,63,0.00,,,0.00,meteohub,2013-02-15 01:37:00,
2013-02-14 17:42:00,62.1,49.3,30.21,SE,133,0.0,2.0,63,0.00,,,0.00,meteohub,2013-02-15 01:42:00,
2013-02-14 17:47:00,62.1,49.3,30.21,SE,133,0.0,0.0,63,0.00,,,0.00,meteohub,2013-02-15 01:47:00,
2013-02-14 17:52:00,62.2,47.7,30.22,ESE,116,3.0,3.0,59,0.00,,,0.00,meteohub,2013-02-15 01:52:00,
2013-02-14 17:57:00,62.8,46.9,30.22,East,80,0.0,4.0,56,0.00,,,0.00,meteohub,2013-02-15 01:57:00,
2013-02-14 18:02:00,62.8,49.6,30.22,East,80,0.0,4.0,62,0.00,,,0.00,meteohub,2013-02-15 02:02:00,
2013-02-14 18:07:00,62.2,47.3,30.22,East,80,2.0,4.0,58,0.00,,,0.00,meteohub,2013-02-15 02:07:00,
2013-02-14 18:12:00,62.2,46.4,30.22,ENE,64,1.0,3.0,56,0.00,,,0.00,meteohub,2013-02-15 02:12:00,
2013-02-14 18:17:00,62.1,48.9,30.22,ENE,63,0.0,3.0,62,0.00,,,0.00,meteohub,2013-02-15 02:17:00,
2013-02-14 18:22:00,61.5,47.5,30.22,ENE,63,1.0,3.0,60,0.00,,,0.00,meteohub,2013-02-15 02:22:00,
2013-02-14 18:27:00,61.3,47.3,30.22,ENE,64,2.0,3.0,60,0.00,,,0.00,meteohub,2013-02-15 02:27:00,
2013-02-14 18:32:00,61.5,47.1,30.22,NE,51,2.0,2.0,59,0.00,,,0.00,meteohub,2013-02-15 02:32:00,
2013-02-14 18:37:00,61.5,47.1,30.22,NE,51,1.0,4.0,59,0.00,,,0.00,meteohub,2013-02-15 02:37:00,
2013-02-14 18:42:00,61.3,47.3,30.22,NE,52,0.0,4.0,60,0.00,,,0.00,meteohub,2013-02-15 02:42:00,
2013-02-14 18:47:00,61.3,47.3,30.22,NE,50,1.0,4.0,60,0.00,,,0.00,meteohub,2013-02-15 02:47:00,
2013-02-14 18:52:00,61.0,46.9,30.22,NE,51,0.0,2.0,60,0.00,,,0.00,meteohub,2013-02-15 02:52:00,
2013-02-14 18:58:00,60.8,47.3,30.22,NE,51,1.0,2.0,61,0.00,,,0.00,meteohub,2013-02-15 02:58:00,
2013-02-14 19:03:00,60.4,47.8,30.22,NE,43,2.0,2.0,63,0.00,,,0.00,meteohub,2013-02-15 03:03:00,
2013-02-14 19:08:00,60.4,47.3,30.22,NE,39,0.0,3.0,62,0.00,,,0.00,meteohub,2013-02-15 03:08:00,
2013-02-14 19:13:00,60.4,46.9,30.22,NE,39,0.0,3.0,61,0.00,,,0.00,meteohub,2013-02-15 03:13:00,
2013-02-14 19:18:00,60.3,46.8,30.22,NE,39,2.0,3.0,61,0.00,,,0.00,meteohub,2013-02-15 03:18:00,
2013-02-14 19:23:00,60.1,46.9,30.23,NE,39,4.0,4.0,62,0.00,,,0.00,meteohub,2013-02-15 03:23:00,
2013-02-14 19:28:00,59.5,46.6,30.22,NE,39,2.0,4.0,62,0.00,,,0.00,meteohub,2013-02-15 03:28:00,
2013-02-14 19:33:00,58.8,46.6,30.23,ENE,70,2.0,5.0,64,0.00,,,0.00,meteohub,2013-02-15 03:33:00,
2013-02-14 19:38:00,58.5,46.8,30.23,ENE,70,0.0,5.0,65,0.00,,,0.00,meteohub,2013-02-15 03:38:00,
2013-02-14 19:43:00,58.1,46.4,30.23,ENE,70,0.0,4.0,65,0.00,,,0.00,meteohub,2013-02-15 03:43:00,
2013-02-14 19:48:00,58.1,46.4,30.23,ENE,70,0.0,4.0,65,0.00,,,0.00,meteohub,2013-02-15 03:48:00,
2013-02-14 19:53:00,57.9,46.2,30.23,ENE,70,0.0,2.0,65,0.00,,,0.00,meteohub,2013-02-15 03:53:00,
2013-02-14 19:58:00,57.6,46.2,30.23,ENE,70,0.0,1.0,66,0.00,,,0.00,meteohub,2013-02-15 03:58:00,
2013-02-14 20:03:00,57.4,46.9,30.23,NE,39,2.0,2.0,68,0.00,,,0.00,meteohub,2013-02-15 04:03:00,
2013-02-14 20:08:00,57.2,47.1,30.23,NNE,14,3.0,3.0,69,0.00,,,0.00,meteohub,2013-02-15 04:08:00,
2013-02-14 20:13:00,56.8,47.1,30.23,North,350,1.0,3.0,70,0.00,,,0.00,meteohub,2013-02-15 04:13:00,
2013-02-14 20:18:00,56.5,46.8,30.23,North,359,0.0,3.0,70,0.00,,,0.00,meteohub,2013-02-15 04:18:00,
2013-02-14 20:23:00,56.1,46.4,30.24,North,359,0.0,3.0,70,0.00,,,0.00,meteohub,2013-02-15 04:23:00,
2013-02-14 20:28:00,55.9,46.2,30.24,North,359,0.0,3.0,70,0.00,,,0.00,meteohub,2013-02-15 04:28:00,
2013-02-14 20:34:00,55.8,46.0,30.24,North,359,0.0,2.0,70,0.00,,,0.00,meteohub,2013-02-15 04:34:00,
2013-02-14 20:39:00,55.6,46.4,30.24,North,359,0.0,2.0,71,0.00,,,0.00,meteohub,2013-02-15 04:39:00,
2013-02-14 20:44:00,55.6,46.8,30.25,North,359,2.0,2.0,72,0.00,,,0.00,meteohub,2013-02-15 04:44:00,
2013-02-14 20:49:00,55.4,46.6,30.24,North,354,1.0,3.0,72,0.00,,,0.00,meteohub,2013-02-15 04:49:00,
2013-02-14 20:54:00,55.2,46.4,30.24,North,354,3.0,3.0,72,0.00,,,0.00,meteohub,2013-02-15 04:54:00,
2013-02-14 20:59:00,55.0,45.9,30.24,North,354,1.0,3.0,71,0.00,,,0.00,meteohub,2013-02-15 04:59:00,
2013-02-14 21:00:00,55.0,46.2,30.24,North,350,1.0,3.0,72,0.00,,,0.00,meteohub,2013-02-15 05:00:00,
2013-02-14 21:01:00,54.9,45.7,30.24,North,354,1.0,4.0,71,0.00,,,0.00,meteohub,2013-02-15 05:01:00,
2013-02-14 21:03:00,54.7,45.5,30.25,North,350,0.0,4.0,71,0.00,,,0.00,meteohub,2013-02-15 05:03:00,
2013-02-14 21:08:00,54.5,45.3,30.25,North,354,1.0,4.0,71,0.00,,,0.00,meteohub,2013-02-15 05:08:00,
2013-02-14 21:13:00,54.1,45.3,30.25,North,354,2.0,3.0,72,0.00,,,0.00,meteohub,2013-02-15 05:13:00,
2013-02-14 21:18:00,54.0,45.1,30.25,North,350,1.0,2.0,72,0.00,,,0.00,meteohub,2013-02-15 05:18:00,
2013-02-14 21:23:00,53.8,45.0,30.25,North,350,1.0,4.0,72,0.00,,,0.00,meteohub,2013-02-15 05:23:00,
2013-02-14 21:29:00,53.4,44.6,30.25,North,350,0.0,4.0,72,0.00,,,0.00,meteohub,2013-02-15 05:29:00,
2013-02-14 21:34:00,53.2,44.8,30.25,North,350,2.0,4.0,73,0.00,,,0.00,meteohub,2013-02-15 05:34:00,
2013-02-14 21:39:00,52.9,44.4,30.25,North,350,0.0,3.0,73,0.00,,,0.00,meteohub,2013-02-15 05:39:00,
2013-02-14 21:44:00,52.7,44.2,30.25,North,350,0.0,2.0,73,0.00,,,0.00,meteohub,2013-02-15 05:44:00,
2013-02-14 21:49:00,52.5,44.1,30.25,North,350,0.0,2.0,73,0.00,,,0.00,meteohub,2013-02-15 05:49:00,
2013-02-14 21:54:00,52.5,44.1,30.25,North,350,0.0,2.0,73,0.00,,,0.00,meteohub,2013-02-15 05:54:00,
2013-02-14 21:59:00,52.5,44.4,30.25,North,350,0.0,0.0,74,0.00,,,0.00,meteohub,2013-02-15 05:59:00,
2013-02-14 22:04:00,52.5,44.4,30.25,North,354,0.0,2.0,74,0.00,,,0.00,meteohub,2013-02-15 06:04:00,
2013-02-14 22:09:00,52.5,44.4,30.25,North,350,0.0,2.0,74,0.00,,,0.00,meteohub,2013-02-15 06:09:00,
2013-02-14 22:14:00,52.3,43.9,30.25,North,350,0.0,2.0,73,0.00,,,0.00,meteohub,2013-02-15 06:14:00,
2013-02-14 22:19:00,52.2,44.1,30.25,North,354,0.0,1.0,74,0.00,,,0.00,meteohub,2013-02-15 06:19:00,
2013-02-14 22:24:00,52.2,44.1,30.25,North,354,0.0,1.0,74,0.00,,,0.00,meteohub,2013-02-15 06:24:00,
2013-02-14 22:29:00,52.0,43.9,30.25,North,354,2.0,2.0,74,0.00,,,0.00,meteohub,2013-02-15 06:29:00,
2013-02-14 22:34:00,51.8,43.7,30.25,North,354,0.0,2.0,74,0.00,,,0.00,meteohub,2013-02-15 06:34:00,
2013-02-14 22:39:00,51.8,43.7,30.25,North,350,1.0,2.0,74,0.00,,,0.00,meteohub,2013-02-15 06:39:00,
2013-02-14 22:44:00,51.8,43.7,30.26,North,354,1.0,2.0,74,0.00,,,0.00,meteohub,2013-02-15 06:44:00,
2013-02-14 22:49:00,51.6,43.3,30.26,North,350,0.0,2.0,73,0.00,,,0.00,meteohub,2013-02-15 06:49:00,
2013-02-14 22:54:00,51.6,43.3,30.26,North,354,0.0,2.0,73,0.00,,,0.00,meteohub,2013-02-15 06:54:00,
2013-02-14 22:59:00,51.6,43.3,30.26,North,350,0.0,2.0,73,0.00,,,0.00,meteohub,2013-02-15 06:59:00,
2013-02-14 23:04:00,51.4,43.5,30.26,North,354,0.0,2.0,74,0.00,,,0.00,meteohub,2013-02-15 07:04:00,
2013-02-14 23:09:00,51.1,43.5,30.26,North,350,0.0,1.0,75,0.00,,,0.00,meteohub,2013-02-15 07:09:00,
2013-02-14 23:15:00,50.9,43.3,30.26,North,354,1.0,1.0,75,0.00,,,0.00,meteohub,2013-02-15 07:15:00,
2013-02-14 23:20:00,50.7,43.5,30.26,North,350,0.0,2.0,76,0.00,,,0.00,meteohub,2013-02-15 07:20:00,
2013-02-14 23:25:00,50.7,43.5,30.26,North,349,1.0,2.0,76,0.00,,,0.00,meteohub,2013-02-15 07:25:00,
2013-02-14 23:30:00,50.5,43.3,30.26,North,354,0.0,2.0,76,0.00,,,0.00,meteohub,2013-02-15 07:30:00,
2013-02-14 23:35:00,50.4,43.2,30.26,North,350,1.0,2.0,76,0.00,,,0.00,meteohub,2013-02-15 07:35:00,
2013-02-14 23:40:00,50.2,43.0,30.26,North,350,1.0,2.0,76,0.00,,,0.00,meteohub,2013-02-15 07:40:00,
2013-02-14 23:45:00,50.0,42.8,30.26,North,350,1.0,4.0,76,0.00,,,0.00,meteohub,2013-02-15 07:45:00,
2013-02-14 23:50:00,49.8,42.6,30.26,North,350,0.0,4.0,76,0.00,,,0.00,meteohub,2013-02-15 07:50:00,
2013-02-14 23:55:00,49.8,43.0,30.26,North,350,1.0,4.0,77,0.00,,,0.00,meteohub,2013-02-15 07:55:00,